Location: Livorno
(43.5500°N, 10.3170°E)
Time: 05:28:03
(UTC+01:00)

ISS - Visible Passes

Search period start: 03 December 2023 00:00
Search period end: 13 December 2023 00:00
Orbit: 415 x 417 km, 51.6° (Epoch: 03 December)

Date Brightness Start Highest point End Pass type
(mag) Time Alt. Az. Time Alt. Az. Time Alt. Az.
03 Dec -3.7 18:17:46 10° WNW 18:21:07 75° SW 18:22:31 32° SE visible
04 Dec -3.8 17:29:16 10° NW 17:32:37 68° NNE 17:35:58 10° ESE visible
04 Dec -1.1 19:06:46 10° W 19:09:01 17° SW 19:09:51 16° SSW visible
05 Dec -1.7 18:17:43 10° WNW 18:20:38 28° SW 18:23:33 10° SSE visible
06 Dec -2.7 17:28:55 10° WNW 17:32:09 47° SW 17:35:23 10° SE visible
07 Dec -0.3 18:18:54 10° WSW 18:19:47 11° SW 18:20:40 10° SW visible
08 Dec -0.7 17:28:56 10° W 17:31:20 18° SW 17:33:43 10° S visible
